Lapse_Rate
6.4 6.6 6.5 6.3 6.3 6.1 6.2 6.2 6.2 5.8 5.8 5.7 6.2 5.6 6.4 6.3 6.1 5.8 5.9 6.2 6.2 6.1 6.1 6.3 6.4 6.4 6.3 6.1 6.1 6.2 6.4 6.2 6.6 6.2 6.7 6.5 6.4 6.4 6.4 6.4 6.4 6.4 6.4 6.3 6.3
6.5 6.8 6.7 6.3 6.1 6.1 5.9 6.0 5.8 5.7 5.8 5.5 6.1 5.6 6.5 6.4 6.2 6.1 6.0 6.2 6.4 6.2 6.2 6.4 6.5 6.4 6.3 6.3 6.0 6.2 6.3 6.6 6.7 6.8 6.5 6.5 6.4 6.5 6.4 6.4 6.3 6.3 6.3 6.2 6.2
6.5 6.6 6.5 6.8 6.0 6.0 6.0 5.9 5.8 5.9 5.8 5.5 6.1 5.8 6.4 6.5 6.2 6.1 6.0 6.4 6.5 6.6 6.4 6.6 6.2 6.3 6.4 6.4 6.2 6.2 6.5 6.6 6.6 6.6 6.5 6.4 6.4 6.3 6.3 6.3 6.3 6.3 6.3 6.3 6.3
6.9 6.6 6.4 6.4 6.4 6.0 5.9 5.9 6.0 5.8 5.5 5.4 6.2 6.0 6.2 6.3 6.0 6.2 5.9 6.0 6.3 6.7 6.6 6.7 6.3 6.3 6.4 6.3 6.4 6.4 6.4 6.6 6.5 6.4 6.3 6.3 6.3 6.2 6.2 6.3 6.2 6.2 6.2 6.2 6.2
7.2 6.9 6.5 6.2 6.1 6.2 6.0 5.9 6.0 5.8 6.0 6.0 6.4 6.2 6.0 6.2 6.3 6.2 6.0 5.9 6.1 6.4 6.6 6.6 6.5 6.4 6.4 6.5 6.4 6.2 6.3 6.4 6.4 6.3 6.2 6.1 6.1 6.2 6.2 6.2 6.1 6.1 6.0 6.0 6.1
6.7 7.0 6.6 6.4 6.0 6.1 6.0 5.8 6.0 5.9 5.9 6.3 6.5 6.4 6.0 6.2 6.2 6.2 6.0 6.0 6.1 6.3 6.4 6.3 6.3 6.2 6.3 6.5 6.2 6.3 6.3 6.3 6.3 6.2 6.1 6.1 6.0 6.0 6.1 6.0 6.0 5.9 5.9 5.9 6.0
6.4 6.7 6.7 6.5 6.2 5.9 6.3 6.1 6.3 6.1 6.2 6.5 6.4 6.4 6.4 6.0 6.2 6.2 6.0 6.1 6.1 6.1 6.3 6.3 6.2 6.2 6.1 6.1 6.0 6.0 5.9 5.9 6.0 6.0 6.0 6.0 5.8 5.9 6.0 5.9 5.9 5.9 6.0 6.1 6.2
6.6 6.6 6.8 6.7 6.4 6.1 6.2 6.2 6.0 5.8 6.2 6.4 6.5 6.3 7.0 6.0 6.0 6.1 6.2 6.2 6.2 6.1 6.0 6.1 6.2 6.3 6.3 6.2 5.9 5.8 5.7 5.6 5.8 5.9 5.9 5.8 5.7 5.9 5.9 5.9 5.9 6.0 6.1 6.1 6.1
6.8 6.9 6.6 6.5 6.5 6.2 6.1 5.9 6.2 5.9 6.1 6.2 6.1 6.3 6.6 6.3 6.0 6.1 6.2 6.2 6.3 6.2 6.1 6.1 6.1 6.2 6.2 6.1 5.8 5.5 5.2 5.7 5.9 6.0 6.0 5.9 6.0 6.1 6.0 6.0 6.0 6.2 6.2 6.2 6.0
6.6 6.6 6.5 6.6 6.2 6.0 5.6 6.0 5.6 5.7 5.7 5.9 5.7 6.2 6.4 6.3 6.2 6.1 6.1 6.3 6.4 6.3 6.1 6.1 6.1 6.1 6.1 6.1 5.8 6.0 6.0 6.0 5.7 6.0 6.0 6.0 6.2 6.1 6.0 6.0 6.1 6.1 6.1 6.1 6.1
6.0 6.1 6.0 6.3 5.9 5.8 5.5 5.4 5.5 5.1 5.6 5.9 5.8 6.7 6.4 6.4 6.3 6.2 6.1 6.2 6.4 6.4 6.4 6.2 6.3 6.1 6.0 6.1 6.0 6.2 6.1 6.0 5.9 5.8 5.8 5.9 6.4 6.1 5.8 6.3 6.3 6.3 6.2 6.1 6.1
6.1 6.0 5.7 6.1 5.7 5.8 5.4 5.5 5.6 5.5 5.0 5.3 5.5 5.7 6.3 6.4 6.6 6.5 6.4 6.4 6.3 6.5 6.4 6.3 6.1 6.1 5.9 5.9 5.9 5.9 5.9 5.8 5.6 5.6 5.5 5.8 6.4 6.4 6.1 6.3 6.3 6.4 6.3 6.3 6.4
5.8 5.6 6.0 6.0 5.9 5.5 5.4 5.6 5.8 5.3 5.0 5.2 5.5 5.7 6.0 6.0 6.5 6.5 6.3 6.3 6.3 6.4 6.4 6.5 6.1 6.0 5.9 5.9 5.7 5.7 5.6 5.6 5.5 5.4 5.4 5.5 5.8 6.6 6.6 6.5 6.4 6.5 6.4 6.1 5.9
6.0 6.1 5.9 6.0 5.6 5.1 5.4 5.7 5.6 5.4 5.5 5.3 5.9 5.8 6.2 6.0 6.1 6.2 6.2 6.4 6.4 6.4 6.1 6.2 6.1 6.1 6.0 5.9 5.8 5.7 5.6 5.5 5.4 5.3 4.9 5.1 5.0 6.1 6.6 6.8 6.7 6.4 5.9 5.7 5.6
6.2 6.2 6.3 5.8 5.7 5.8 6.0 5.9 5.9 6.2 6.0 5.6 5.7 5.8 6.0 6.5 6.2 6.0 6.3 6.3 6.5 6.5 6.6 6.0 5.8 5.7 5.8 5.9 5.8 5.8 5.6 5.5 5.4 5.2 4.9 5.0 4.3 5.7 6.1 6.4 6.3 6.0 5.8 5.5 5.2
6.6 6.5 6.4 6.5 6.4 6.3 6.2 6.3 6.5 6.5 5.0 5.4 5.5 5.8 6.0 6.1 6.4 6.4 6.4 6.6 6.6 6.5 6.4 6.4 6.0 6.0 6.0 5.8 5.7 5.6 5.5 5.5 5.4 5.2 4.5 4.8 4.5 4.8 5.8 6.1 5.7 5.6 5.5 5.2 5.1
6.7 6.8 6.8 6.7 6.6 6.5 6.4 6.4 6.2 5.4 5.1 5.3 5.5 5.6 5.9 6.2 6.2 6.3 6.4 6.5 6.5 6.2 6.2 6.1 5.9 5.8 5.8 5.7 5.6 5.6 5.5 5.4 5.1 4.8 5.3 4.2 3.5 5.8 5.8 5.8 5.7 5.6 5.6 5.5 5.5
6.4 6.7 6.9 7.0 6.7 6.4 6.4 6.3 6.0 5.0 5.1 5.5 5.6 5.6 5.9 6.0 6.0 6.2 6.0 6.2 6.2 6.3 5.9 5.7 5.1 5.3 5.4 5.2 5.1 5.1 5.2 5.2 5.4 5.4 5.2 4.4 3.8 6.1 5.9 6.0 6.0 5.8 5.7 5.6 5.6
6.2 6.5 6.7 6.7 6.7 6.8 6.3 6.3 5.4 5.5 5.6 5.7 5.7 5.8 6.0 6.1 6.1 6.1 6.2 6.2 6.2 6.1 6.0 5.7 5.3 5.1 5.1 5.0 5.0 5.0 4.8 5.0 4.7 3.8 3.5 5.0 5.4 6.2 6.1 6.1 5.8 5.7 5.5 5.4 5.3
6.2 6.2 6.4 6.6 6.7 6.7 6.6 6.5 5.8 5.9 5.8 5.9 6.0 6.1 6.2 6.3 6.2 6.1 6.0 6.0 6.1 6.1 6.2 6.0 5.6 5.3 5.3 5.2 5.2 5.1 5.1 4.7 4.7 5.0 5.3 5.6 4.7 6.4 6.4 6.1 5.8 5.4 5.3 5.4 5.8
6.1 6.3 6.0 6.2 6.3 6.4 6.7 6.0 5.9 6.0 6.1 6.1 6.1 6.2 6.2 6.2 6.2 6.2 6.2 6.1 6.1 6.1 6.0 5.9 5.9 5.2 5.2 5.3 5.2 5.0 4.7 4.8 4.7 4.4 5.3 5.4 5.9 6.4 6.2 5.8 5.7 5.4 5.6 5.7 5.8
5.9 6.0 6.1 6.0 5.9 6.1 6.2 5.8 5.7 5.8 5.9 6.0 6.2 6.2 6.2 6.2 6.2 6.2 6.1 5.9 5.8 5.9 5.8 5.8 5.6 5.4 5.1 5.3 5.2 5.1 4.9 4.8 4.8 4.4 4.0 3.9 5.0 6.3 6.2 6.2 6.0 5.7 5.5 5.8 5.8
5.9 5.8 5.9 6.0 5.8 5.9 5.9 5.9 5.9 5.9 5.8 5.8 6.0 6.1 6.0 5.9 5.9 5.9 5.9 5.8 5.8 5.7 5.6 5.6 5.4 5.1 5.0 5.0 4.9 4.8 5.1 4.9 4.4 4.4 4.3 4.6 5.9 6.8 6.5 6.2 5.9 5.7 5.7 5.9 6.0
5.8 5.8 5.7 5.8 5.8 5.6 5.7 5.6 5.7 5.6 5.8 5.8 5.8 5.8 5.8 5.8 5.7 5.6 5.5 5.5 5.5 5.4 5.3 5.2 5.1 5.4 5.8 5.4 5.2 4.9 5.3 4.9 4.0 3.8 4.4 4.4 6.0 6.5 6.1 5.8 5.7 5.6 5.7 6.0 6.1
5.8 5.7 5.5 5.5 5.5 5.6 5.5 5.5 5.6 5.6 5.6 5.6 5.6 5.6 5.6 5.6 5.6 5.5 5.5 5.4 5.3 5.2 5.0 4.7 4.8 4.9 5.0 4.9 4.7 4.7 4.5 4.2 4.2 4.9 4.1 5.4 5.3 7.0 6.3 6.1 5.9 5.9 6.0 6.1 6.3
6.0 5.8 5.6 5.4 5.3 5.2 5.4 5.3 5.2 5.4 5.4 5.4 5.2 5.1 5.3 5.2 5.4 5.4 5.2 5.1 5.0 5.0 4.7 4.6 4.3 4.2 4.6 4.8 4.5 4.2 4.4 4.3 3.7 3.5 3.8 4.1 5.6 5.7 6.1 6.1 6.2 6.0 5.9 6.3 6.6
6.1 6.0 5.8 5.7 5.4 5.2 5.2 5.2 5.2 5.0 5.2 5.2 5.2 5.0 4.9 4.9 4.9 4.7 4.7 4.7 4.6 4.5 4.4 4.1 4.0 3.7 3.7 4.0 3.9 4.5 5.7 5.2 5.0 5.0 5.4 4.4 7.3 6.0 6.4 6.1 5.9 6.0 6.2 6.7 6.9
Wind_Speed
22 25 27 18 17 17 18 23 19 22 25 26 24 23 18 16 12 7 11 4 4 6 2 5 5 6 5 4 4 1 3 7 6 11 8 8 6 2 1 5 3 3 5 7 5
20 22 23 23 16 15 18 20 13 19 26 25 24 23 17 13 15 13 9 9 10 9 5 11 11 7 4 3 3 3 2 4 3 4 10 7 4 5 5 8 6 9 9 7 6
19 18 19 21 17 16 16 19 23 25 23 24 22 24 16 2 11 4 10 12 8 6 0 3 9 5 5 3 5 4 4 6 5 5 4 4 5 1 8 4 4 8 8 5 3
18 18 17 17 16 20 18 18 18 17 22 21 19 19 4 1 7 2 13 12 6 1 1 7 10 4 5 6 3 6 6 3 3 5 2 3 2 4 3 5 6 6 3 2 1
16 17 16 13 13 16 21 28 28 19 15 20 14 5 4 9 7 9 14 7 1 2 3 6 10 6 8 8 6 11 6 7 6 7 8 2 5 2 4 3 2 2 2 2 1
17 17 24 22 19 18 21 25 30 26 20 13 9 6 8 18 8 11 7 1 4 4 4 3 6 9 10 6 4 8 12 8 8 7 7 2 1 2 3 2 3 2 2 1 2
33 28 27 26 25 21 21 18 21 21 18 16 10 12 24 10 7 10 7 2 2 3 6 4 5 4 6 10 8 10 10 6 10 7 4 3 4 4 3 1 3 2 3 4 5
28 27 25 24 23 23 20 13 16 14 15 12 9 9 9 4 5 16 7 12 10 13 13 9 11 12 4 12 5 4 4 7 4 6 2 4 3 5 5 2 3 4 6 7 8
24 23 24 24 21 19 17 13 9 11 14 7 6 6 5 9 7 10 9 6 7 8 8 6 6 6 4 9 6 2 5 6 4 4 3 2 2 4 7 4 7 8 8 8 7
25 22 21 19 16 13 10 13 18 11 6 1 5 7 6 4 4 6 5 5 6 4 4 7 5 7 4 2 4 6 5 3 3 3 3 5 11 7 8 10 11 10 8 5 4
19 17 19 18 16 11 6 4 4 8 18 13 9 12 3 6 3 10 6 3 4 8 5 7 9 8 7 5 5 8 7 5 2 2 5 5 12 13 9 11 13 11 7 5 4
21 20 16 10 18 12 6 5 3 3 14 13 15 11 6 4 7 15 9 5 5 6 2 6 8 4 5 6 9 7 8 4 2 1 4 6 17 16 13 12 9 9 8 5 4
21 20 19 8 4 7 9 5 3 4 5 9 6 7 5 8 7 11 7 4 8 10 8 7 5 1 4 8 8 7 3 2 2 4 0 8 10 7 2 4 4 6 6 6 6
20 20 21 17 2 2 3 4 5 1 4 12 10 7 6 4 6 5 5 4 5 9 8 9 3 4 6 6 4 3 2 2 3 3 2 5 5 6 5 6 6 9 9 9 7
16 17 12 15 2 3 6 9 4 4 4 10 6 5 7 5 1 10 6 6 7 5 1 3 4 5 6 3 3 4 2 3 2 2 2 2 3 5 2 5 6 11 11 10 7
10 11 7 3 1 1 5 4 3 1 4 4 6 7 3 8 4 3 4 8 2 10 16 6 2 4 3 5 7 8 3 2 2 1 3 2 2 4 4 1 2 3 7 8 7
8 4 2 1 3 5 2 1 0 5 1 2 4 4 5 7 5 6 5 5 3 4 4 3 4 2 1 3 3 0 0 1 2 2 3 1 4 10 6 7 4 3 4 7 8
11 2 3 3 3 2 2 1 7 1 2 2 1 4 4 6 5 5 3 4 6 3 3 4 3 2 3 2 1 2 0 2 3 2 3 3 6 3 3 2 4 6 8 9 8
4 2 1 5 2 1 2 6 3 3 4 5 3 3 2 2 2 2 4 2 3 4 2 3 3 1 2 1 1 2 1 1 2 1 3 3 6 13 9 13 13 13 9 9 8
1 1 2 9 0 1 4 5 2 2 3 1 2 1 3 1 2 2 1 1 2 1 3 3 4 1 2 1 2 2 7 2 1 3 5 4 6 5 3 3 8 8 7 4 4
1 1 2 4 2 4 5 5 5 2 1 2 2 2 3 2 2 2 2 2 1 2 2 3 0 3 2 6 7 4 3 2 2 3 3 5 5 6 7 7 8 7 5 6 8
1 1 2 2 2 3 3 4 3 2 1 2 3 3 1 1 1 1 2 1 4 4 4 2 2 3 2 2 4 5 4 7 4 5 4 3 8 3 6 5 5 8 8 9 11
2 2 1 2 3 3 3 4 2 2 1 2 2 1 2 3 1 1 1 2 4 3 2 4 2 1 2 2 2 5 11 10 3 2 8 4 6 2 2 6 6 8 8 11 12
1 2 3 4 2 5 4 3 2 2 2 1 3 2 3 2 1 3 2 1 4 2 1 3 2 6 3 2 3 5 11 16 12 5 6 13 12 16 11 9 9 10 12 14 12
4 2 1 3 4 4 2 3 4 3 1 1 2 4 4 3 3 3 3 3 2 1 3 2 4 5 10 11 12 15 15 15 20 22 11 10 15 22 15 15 15 14 15 14 12
2 2 1 2 1 1 2 4 5 3 5 3 3 5 5 3 3 6 7 6 4 6 7 4 3 4 6 9 10 17 20 22 24 25 28 26 31 26 26 19 16 15 11 10 11
1 1 2 1 1 2 1 2 4 3 2 1 3 2 4 5 4 4 2 1 1 5 10 5 3 2 5 4 14 16 17 22 19 19 24 22 28 16 21 16 14 13 13 14 15
Wind_Direction
19 28 34 49 69 70 71 66 67 142 184 142 143 131 133 130 127 156 67 35 10 355 228 143 130 117 91 80 37 342 164 153 145 168 135 143 150 126 104 131 99 48 59 93 96
34 28 32 42 69 80 79 60 69 161 148 137 129 123 125 145 110 76 5 9 354 3 187 161 141 134 78 73 33 12 136 112 51 68 133 128 140 126 166 138 96 102 95 95 93
39 31 33 38 59 80 86 81 65 128 130 127 125 125 130 48 115 28 342 336 336 348 191 136 132 98 82 61 22 29 63 120 67 71 94 108 113 37 152 130 90 139 124 105 78
21 37 31 35 58 78 86 97 101 107 118 114 117 118 106 212 132 355 330 322 324 14 156 140 148 106 111 106 60 102 58 65 54 20 64 89 87 105 32 76 82 86 85 89 38
29 30 27 31 84 84 84 96 88 140 115 109 110 125 128 79 52 334 328 326 123 81 59 132 141 124 113 110 100 95 107 73 73 59 49 70 67 65 97 73 85 112 146 153 129
44 41 58 77 89 90 91 93 88 91 106 112 118 131 93 77 342 339 326 54 88 100 67 25 109 108 92 77 53 119 110 99 60 45 45 52 104 274 125 41 111 128 137 117 344
57 64 68 70 82 94 99 90 71 72 69 85 96 100 70 59 353 8 45 25 14 108 96 55 108 83 121 105 109 120 106 111 38 12 43 329 201 209 124 149 141 185 216 271 296
55 61 65 69 74 80 95 75 54 48 46 76 70 86 78 7 25 34 54 79 73 75 95 87 85 88 54 118 94 108 149 157 47 0 40 309 202 169 157 159 224 269 267 283 296
57 56 56 58 65 79 81 75 38 27 34 13 44 80 64 334 25 352 24 72 94 77 68 82 72 73 121 120 115 78 165 182 149 34 309 261 242 167 190 244 278 277 287 288 288
52 45 43 40 39 35 54 65 55 25 8 58 61 89 23 13 338 338 9 23 69 99 67 39 67 107 89 25 170 160 140 158 171 35 301 255 257 231 222 259 267 282 281 261 244
29 28 36 45 43 13 360 354 9 36 42 61 55 80 56 322 32 22 355 355 45 54 72 32 79 83 57 36 75 113 121 119 97 32 309 274 278 271 248 249 259 261 252 235 239
11 9 24 28 49 58 60 62 27 342 73 43 54 65 47 330 63 16 8 61 44 78 95 72 81 72 69 73 88 96 126 96 125 350 308 315 290 279 266 258 261 238 221 219 236
4 6 4 354 21 47 71 63 292 325 85 33 35 28 355 15 46 5 12 64 61 61 67 88 95 107 93 67 89 54 69 87 1 322 313 310 268 255 197 242 221 212 220 228 249
355 356 359 352 64 353 72 346 326 315 86 8 358 34 355 335 64 12 20 38 59 96 72 70 35 105 94 74 351 119 37 66 26 355 284 348 286 286 231 248 242 224 217 226 233
352 349 357 29 19 34 338 335 305 230 81 343 336 317 352 52 64 29 22 48 78 67 227 75 69 79 69 18 342 118 116 84 65 75 319 134 253 251 276 260 246 225 219 222 245
351 346 339 13 76 71 319 349 326 181 78 4 336 357 37 24 41 334 53 64 120 70 70 80 55 35 74 61 65 135 140 92 104 91 246 45 277 267 236 206 204 186 208 226 264
351 348 24 16 344 343 334 218 301 57 332 44 22 11 78 23 45 29 37 45 56 106 41 64 31 55 45 97 92 126 16 290 258 208 282 152 244 255 250 232 246 270 255 267 279
350 47 71 57 317 271 222 148 67 108 212 178 118 60 73 11 47 33 93 83 55 44 120 158 164 2 4 26 104 67 287 267 268 275 319 150 239 252 236 277 248 257 269 274 272
354 25 84 11 354 287 231 56 81 159 145 154 116 81 83 72 95 84 58 88 37 15 95 147 102 98 52 90 311 132 182 50 99 95 266 259 268 268 256 255 242 247 242 257 263
52 355 30 332 64 232 75 99 75 92 111 94 90 336 139 98 105 77 90 120 121 26 329 143 115 110 112 207 97 271 146 137 151 268 264 248 273 252 265 207 172 189 210 232 277
55 163 25 341 263 60 74 75 106 97 48 40 101 97 70 109 75 105 127 140 188 112 63 140 40 138 213 209 186 156 195 191 298 250 283 305 263 213 224 211 195 203 216 262 294
73 40 21 306 46 35 65 96 122 120 97 101 97 102 117 136 99 134 154 36 165 168 148 92 105 176 190 84 281 236 236 193 231 194 228 277 269 277 251 256 262 261 260 275 298
61 332 79 275 85 77 95 87 86 141 154 148 122 106 145 138 98 93 229 34 166 173 165 171 192 180 196 223 199 234 218 223 239 14 224 220 257 18 289 261 251 254 261 283 295
76 42 22 55 25 105 129 120 111 40 118 73 103 126 135 124 132 159 174 126 173 200 80 176 250 255 278 48 121 211 220 213 209 224 246 230 283 275 273 270 267 266 281 290 285
14 77 126 30 43 83 98 128 141 167 17 245 153 210 171 150 167 192 158 153 150 207 147 269 266 257 270 268 254 258 251 220 215 224 230 257 239 265 271 276 275 283 288 289 284
37 146 120 100 138 95 337 175 176 161 175 204 261 188 202 198 209 180 175 203 188 171 183 185 255 295 278 273 268 265 254 243 240 237 248 259 271 274 277 280 275 272 278 275 282
54 26 295 110 115 186 132 162 191 169 184 297 178 144 223 262 273 351 253 64 174 185 189 188 229 296 269 296 301 277 258 236 236 235 236 245 249 269 273 274 283 286 282 287 286